Ninole, HI (96773)

4:31 AM HST on August 24, 2016 (GMT -1000)
Hamakua Coast | | Change Station
Active Advisory: Flash Flood Watch Active Notice: Record Report

Elev 1120 ft 19.92 °N, 155.18 °W | Updated 10 minutes ago

Rain
Rain Mist
72.1 °F
Feels Like 72.1 °F
N
5.0
Wind Variable Wind from SSW

Today
High -- | Low -- °F
--% Chance of Precip.
Yesterday
High -- | Low -- °F
Precip. -- in
Pressure 29.96 in
Visibility 2.0 miles
Clouds Overcast 1900 ft
Dew Point 71 °F
Humidity 96%
Rainfall 0.00 in
Snow Depth Not available.
6:03 AM 6:41 PM
Waning Gibbous, 56% visible
METAR PHTO 241353Z 25003KT 2SM RA BR OVC019 23/22 A2996 RMK AO2 SLP144 P0066 T02280222 $
Pressure 29.96 in
Visibility 2.0 miles
Clouds Overcast 1900 ft
Dew Point 71 °F
Humidity 96%
Rainfall 0.00 in
Snow Depth Not available.
6:03 AM 6:41 PM
Waning Gibbous, 56% visible
METAR PHTO 241353Z 25003KT 2SM RA BR OVC019 23/22 A2996 RMK AO2 SLP144 P0066 T02280222 $

10-Day Weather Forecast

Almanac

Astronomy

Aug. 24, 2016 Rise Set
Actual Time
Civil Twilight
Nautical Twilight
Astronomical Twilight
Moon
Length of Visible Light
Length of Day
Tomorrow will be .
, % of the Moon is Illuminated

Today's Extremes

State Highs State Lows

Community

WunderPhotos

Upload Photos

1,934,607 photos uploaded!

WunderBlog® & News

Nearby

Air Quality

  Air Quality AQ Index Pollutant
Not available.

Snow Depth

Station Depth Elevation

Earthquake Activity

City Distance Mag. Time & Date
Minimum magnitude displayed is 2.5.

Coastal Water Temperatures

Place Temperature

Stations

Nearby Weather Stations

Station Location Temp. Windchill Dew Point Humidity Wind Precip. Elev Updated Type
                   

Watches & Warnings

Flash Flood Watch
Issued: 4:09 AM HST Aug. 24, 2016 – National Weather Service

... Flash Flood Watch remains in effect through this afternoon...

The Flash Flood Watch continues for

* all Hawaiian islands.

* Through this afternoon

* deep tropical moisture will continue to produce heavy downpours
and a chance of thunderstorms through late this afternoon. With
streams remaining elevated and the ground already saturated from
recent heavy rains in many areas... there will be an elevated
risk for flash flooding.

Precautionary/preparedness actions...

A Flash Flood Watch means that conditions may develop that lead
to flash flooding. Flash flooding is very dangerous.

You should monitor later forecasts and be prepared to take action
should flash flood warnings be issued.